www.pogodaiklimat.ru

Погода и климат >> Архив погоды >> Россия >> Ямало-Ненецкий АО >> Тазовский


АРХИВ ПОГОДЫ в Тазовском

Время (UTC), дата Ветер
(напр.,м/с)
 
Видим.   Явления Облачность Т
(С)
Тd
(С)
f
(%)
Тe
(С)
Тes
(С)
Комфортность P
(гПа)
Po
(гПа)
Тmin
(С)
Tmax
(С)
R
(мм)
R24
(мм)
S
(см)
21 11.01 ЮВ 3 2000 м дым 4/0
[Ci fib]
-41.4 -45.8 62 -53 -53 опасность
обморожения
1020.4 1016.3
00 12.01 ЮВ 4 2000 м дым 4/0
[Ci fib]
-41.6 -46.0 62 -55 -55 опасность
обморожения
1020.1 1016.0
03 12.01 ЮВ 3 2000 м дым 3/0
[Ci fib]
-40.3 -44.6 63 -52 -52 опасность
обморожения
1020.0 1015.9 -42.6 47
06 12.01 ЮВ 4 4000 м дым 6/0
[Ci fib]
-36.9 -40.8 67 -50 -50 опасность
обморожения
1019.5 1015.4
09 12.01 ЮВ 6 10 км 8/0
[Ci fib]
-33.7 -37.3 70 -48 -48 опасность
обморожения
1018.6 1014.6
12 12.01 ЮВ 7 4000 м мгла 10/0
[Cs]
-30.9 -34.1 73 -46 -46 опасность
обморожения
1017.5 1013.5 -13.1
15 12.01 ЮВ 7 20 км 10/0
[Cs]
-28.1 -31.0 76 -42 -42 опасность
обморожения
1015.6 1011.7 -28.1
18 12.01 Ю 8-11
{11}
20 км слаб. снег 10/0
[Ac As]
-22.5 -24.8 81 -36 -36 опасность
обморожения
1012.6 1008.8
21 12.01 Ю 9-15
{17}
4000 м слаб. снег 10/0
[Ac As]
-20.6 -22.8 82 -34 -34 опасность
обморожения
1011.4 1007.6
00 13.01 Ю 5
{15}
н/о н/о -19.1 -21.1 84 -29 -29 1010.7 1006.9
03 13.01 Ю 10-14
{14}
4000 м метель {снег} 10/0
[Ac As]
-17.9 -19.8 85 -31 -31 опасность
обморожения
1009.1 1005.4 -28.1 0.7 48
06 13.01 Ю 8-13
{15}
4000 м метель {снег} 10/0
[Ac As]
-20.0 -22.1 83 -32 -32 опасность
обморожения
1008.3 1004.6
09 13.01 Ю 7-11
{13}
20 км позёмок 9/0
[Ac trans Ci fib]
-19.3 -21.3 84 -31 -31 опасность
обморожения
1006.6 1002.8
12 13.01 Ю 4
{11}
20 км {метель} 3/0
[Ci fib]
-20.5 -22.6 83 -30 -30 1006.1 1002.4
15 13.01 Ю 5 20 км слаб. снег 10/0
[Ac As]
-19.9 -22.0 83 -30 -30 1005.1 1001.4 -17.9 0.0
18 13.01 Ю 6
{11}
20 км слаб. ливневой снег 10/10 480 м
[Cb calv]
-16.9 -18.8 85 -27 -27 1004.0 1000.3
21 13.01 Ю 6 20 км слаб. ливневой снег 10/10 450 м
[Cb calv]
-16.2 -18.0 86 -26 -26 1003.3 999.6
00 14.01 Ю 6
{10}
4000 м слаб. ливневой снег {метель} 10/10 240 м
[Cb calv]
-14.6 -16.3 87 -24 -24 1002.5 998.8
03 14.01 ЮВ 5 20 км слаб. ливневой снег {метель} 9/6 150 м
[Cb cap Ac trans]
-14.5 -16.0 88 -23 -23 1002.2 998.5 -19.9 1 49
06 14.01 Ю 5 4000 м слаб. ливневой снег {метель} 10/8 150 м
[Cb cap Ac As]
-10.9 -12.2 90 -19 -19 1002.7 999.1
09 14.01 Ю 5 4000 м слаб. ливневой снег {метель} 10/8 150 м
[Cb cap Ac As]
-10.9 -12.2 90 -19 -19 1002.7 999.1
12 14.01 Ю 6 20 км слаб. ливневой снег 10/10 180 м
[Cb calv]
-6.9 -7.9 93 -15 -15 1002.4 998.8
15 14.01 Ю 6
{11}
4000 м слаб. ливневой снег 10/10 150 м
[Cb calv]
-6.2 -7.0 94 -14 -14 1001.8 998.3 -6.2 1
18 14.01 Ю 5
{10}
20 км слаб. ливневой снег {метель} 10/10 180 м
[Cb calv]
-6.0 -6.9 93 -13 -13 1002.3 998.8
21 14.01 Ю 4
{11}
20 км слаб. ливневой снег 10/10 300 м
[Cb calv]
-6.8 -7.7 93 -14 -14 1002.3 998.7
00 15.01 Ю 3
{11}
20 км слаб. ливневой снег 10/10 150 м
[Cb calv]
-7.3 -8.0 95 -13 -13 1001.6 998.1
06 15.01 С 2 10 км слаб. ливневой снег 10/8 150 м
[Cb cap Ac As]
-10.9 -12.1 91 -15 -15 998.1 994.5 -11.5
09 15.01 С 2 4000 м слаб. снег 10/6 120 м
[Frnb Ac As]
-9.9 -10.9 92 -14 -14 996.7 993.1
12 15.01 З 6 20 км слаб. снег 10/0
[As op]
-12.5 -13.8 90 -21 -21 997.3 993.7
15 15.01 З 6 20 км в посл. час снег 5/0
[As trans]
-15.6 -17.2 87 -25 -25 998.4 994.7 -9.8 1
18 15.01 ЮЗ 6 20 км {снег} 6/0
[Ac trans]
-20.4 -22.4 84 -31 -31 опасность
обморожения
1000.1 996.4
21 15.01 ЮЗ 8 20 км слаб. снег 10/0
[Ac As]
-24.1 -26.5 80 -38 -38 опасность
обморожения
1001.7 997.9
00 16.01 ЮЗ 7 20 км слаб. снег 10/8 120 м
[Frnb Ac As]
-23.7 -26.1 81 -36 -36 опасность
обморожения
1003.2 999.4
03 16.01 Ю 3 20 км в посл. час снег 10/6 210 м
[St Ac As]
-21.6 -23.8 82 -30 -30 1003.5 999.7 -25.2 0.0 52
06 16.01 Ю 3 20 км слаб. снег 10/6 270 м
[Frnb Ac As]
-19.3 -21.2 85 -27 -27 1003.6 999.8
09 16.01 Ю 4 10 км слаб. снег 10/0
[Ac As]
-18.2 -20.1 85 -27 -27 1004.0 1000.3
12 16.01 Ю 4
{11}
20 км слаб. снег 10/0
[Cs]
-17.8 -19.6 86 -26 -26 1004.6 1000.9
15 16.01 З 4 20 км слаб. снег 10/0
[Cs]
-19.5 -21.5 84 -28 -28 1005.7 1002.0 -17.7 2
18 16.01 ЮЗ 5 20 км {снег} 3/0
[Ci fib]
-27.3 -30.0 78 -39 -39 опасность
обморожения
1007.7 1003.9
21 16.01 З 4 2000 м в посл. час снег 10/10 60 м
[St]
-22.0 -24.3 82 -31 -31 опасность
обморожения
1009.9 1006.1
00 17.01 ЮЗ 3 1000 м дымка {снег} [диам. изморози мм] 10/10 30 м
[St]
-20.0 -22.0 84 -28 -28 1011.6 1007.9
03 17.01 ЮЗ 4 20 км слаб. снег {туман} 10/8 150 м
[Frnb Ac As]
-20.7 -22.8 83 -30 -30 1013.1 1009.3 -28.1 0.0 52
06 17.01 Ю 3 10 км слаб. снег {туман} [диам. изморози мм] 10/8 120 м
[Frnb Ac As]
-21.5 -23.7 82 -29 -29 1014.2 1010.4
09 17.01 ЮВ 3 20 км {снег} 8/3 200 м
[St Ac trans Ci fib]
-22.7 -25.1 81 -31 -31 опасность
обморожения
1013.1 1009.3
12 17.01 ЮВ 6 20 км слаб. снег [диам. изморози мм] 10/0
[Ac As]
-18.7 -20.7 84 -29 -29 1010.4 1006.6
15 17.01 ЮВ 10-14
{14}
2000 м ливневой снег 10/10 180 м
[Cb calv]
-14.5 -16.5 85 -26 -26 1003.7 1000.0 -14.4 1
18 17.01 Ю 9-14
{16}
20 км позёмок {ливн. осадки, снег} 10/0
[Ac As]
-9.6 -10.7 92 -20 -20 1001.0 997.4
21 17.01 Ю 9-13
{14}
20 км позёмок 10/0
[Cs]
-7.1 -8.1 93 -17 -17 998.9 995.3
00 18.01 Ю 8-12
{15}
4000 м слаб. ливневой снег {метель} 10/10 150 м
[Cb calv]
-7.5 -8.6 92 -17 -17 997.0 993.5
03 18.01 Ю 8-12
{15}
4000 м слаб. ливневой снег {метель} 10/10 150 м
[Cb calv]
-7.5 -8.6 92 -17 -17 997.0 993.5
06 18.01 Ю 9-13
{14}
2000 м ливневой снег {метель} 10/10 120 м
[Cb calv]
-8.5 -9.6 92 -19 -19 993.0 989.5
09 18.01 Ю 9-13
{14}
2000 м ливневой снег {метель} 10/10 120 м
[Cb calv]
-8.5 -9.6 92 -19 -19 993.0 989.5
12 18.01 ЮЗ 8-12
{15}
4000 м слаб. ливневой снег {метель} 10/10 150 м
[Cb calv]
-9.0 -10.1 92 -19 -19 994.3 990.8

 

Местоположение метеостанции Тазовский (Ямало-Ненецкий АО, Россия): широта 67.47 долгота 78.73 высота над уровнем моря 28 м.

В архиве по умолчанию представлена погода в Тазовском за последнюю неделю. Архивные данные за месяц целиком и за предыдущие месяцы, начиная с января 2011 года, Вы можете получить, выбрав интересующий диапазон дат из раскрывающегося списка и нажав кнопку "Ввод!".


*Определитесь, кто Вы:
робот инопланетянин человек

Внимание! Время в таблицах - всемирное. Для получения местного времени необходимо прибавить поправку, которая равна 5 ч.

Смотрите также архив погоды в соседних городах и на ближайших метеорологических станциях:

Погода в Уренгое (Ямало-Ненецкий АО, Россия) (170 км)
Погода в Новом Уренгое (Ямало-Ненецкий АО, Россия) (175 км)
Погода в Антипаюте (Ямало-Ненецкий АО, Россия) (195 км)
Погода в Советской Речке (Красноярский край, Россия) (231 км)
Погода в Новом Порте (Ямало-Ненецкий АО, Россия) (249 км)
Погода в Красноселькупске (Ямало-Ненецкий АО, Россия) (256 км)
Погода в Пангодах (Ямало-Ненецкий АО, Россия) (261 км)
Погода в Ныде (Ямало-Ненецкий АО, Россия) (268 км)
Погода в Тарко-Сале (Ямало-Ненецкий АО, Россия) (287 км)
Погода в Игарке (Красноярский край, Россия) (334 км)

Пояснения к столбцам:

Ветер - указаны скорость ветра в м/с - средняя за 10 мин, порывы в срок и между сроками (в фигурных скобках) и направление, откуда дует ветер: С - северный, СВ - северо-восточный, В - восточный, ЮВ - юго-восточный, Ю - южный, ЮЗ - юго-западный, З - западный, СЗ - северо-западный.
Видимость - горизонтальная дальность видимости в метрах или километрах. При видимости от 1 до 10 км при отсутствии осадков обычно наблюдается дымка, при ухудшении видимости до 1 км и менее - туман. В сухую погоду видимость может ухудшаться дымом, пылью или мглою.
Явления - указаны атмосферные явления, наблюдавшиеся в срок или в последний час перед сроком; фигурными скобками обозначены явления, наблюдавшиеся между сроками (за 1-3 часа до срока); квадратными скобками обозначены град или гололедные отложения с указанием их диаметра в мм.
Облачность - указаны через наклонную черту общая и нижняя облачность в баллах и высота нижней границы облаков в метрах; квадратными скобками обозначены формы облаков: Ci - перистые, Cs - перисто-слоистые, Cc - перисто-кучевые, Ac - высококучевые, As - высокослоистые, Sc - слоисто-кучевые, Ns - слоисто-дождевые, Cu - кучевые, Cb - кучево-дождевые. Подробнее классификацию облаков см. в Атласе облаков (PDF).
T - Температура воздуха - температура, измеренная на высоте 2 м над землей.
Td - Температура точки росы - температура, при понижении до которой содержащийся в воздухе водяной пар достигнет насыщения.
f - Относительная влажность воздуха - влажноcть воздуха, измеренная на высоте 2 м над землей.
Te - Эффективная температура - температура, которую ощущает одетый по сезону человек в тени. Характеристика душности погоды. При расчете учитывается влияние влажности воздуха и скорости ветра на теплоощущения человека.
Tes - Эффективная температура на солнце - температура, которую ощущает человек, с поправкой на солнечный нагрев. Характеристика знойности погоды. Зависит от высоты солнца над горизонтом, облачности и скорости ветра. Ночью, в пасмурную погоду, а также при ветре 12 м/с и более поправка равна нулю.
P - Атмосферное давление - приведенное к уровню моря атмосферное давление.
Po - Атмосферное давление - измеренное на уровне метеостанции атмосферное давление.
Tmin - Минимальная температура - минимум температуры воздуха на высоте 2 м над землей.
Tmax - Максимальная температура - максимум температуры воздуха на высоте 2 м над землей.
R - Количество осадков - Количество выпавших осадков за период времени, мм. При наведении курсора мыши на число - период времени, за который выпало указанное количество осадков.
R24 - Количество осадков - Количество выпавших осадков за 24 часа, мм.
S - Снежный покров - Высота снежного покрова, см. При наведении курсора мыши на число - состояние снежного покрова и степень покрытия местности в баллах.